Retour au catalogue

STARLINK-34149

ActifCommunicationsVLEO
NORAD 64140·PAYLOAD·🇺🇸 United States

Lancé May 24, 2025 depuis Cape Canaveral Space Force Station

Loading…

Prochains Passages (prochaines 24 heures)

TLE

FraisSource: CelesTrak SupGP

Époque: Sep 14, 2026, 21:20 UTC

1 64140C 25111T   26257.88937500  .00017970  00000+0  65093-3 0  2573
2 64140  43.0028  89.3324 0001381 272.3480 297.4415 15.27567072    17

Suivez STARLINK-34149 en temps réel avec AllMySat

Download on the App Store